Location: Gajan
(43.0218°N, 1.1244°E)
Time: 15:32:13
(UTC+00:00)

SL-16 R/B - Pass Details

Date: 22 April 2021
Orbit: 840 x 849 km, 71.0° (Epoch: 12 May)

Event Time Altitude Azimuth Distance (km) Brightness Sun altitude
Rises 19:32:17 0° 345° (NNW) 3,422 6.0 -8.6°
Reaches altitude 10° 19:35:33 10° 4° (N) 2,481 5.0 -9.1°
Maximum altitude 19:39:27 19° 47° (NE) 1,942 3.9 -9.8°
Drops below altitude 10° 19:43:19 10° 91° (E) 2,469 4.1 -10.4°
Enters shadow 19:43:23 10° 91° (E) 2,485 4.1 -10.4°
